�N����,����,�~����,�C��,���x,�C��,����,���ϕ���,�ő�u�ԕ���,�ő厞����,���˗�,�I�_���x,�n�����x,�ő啗���N��,DTYPE
"17/02/28","00:10",0.0,0.5,87.1,1018.2,315.9,2.5,3.6,319.0,0.00,-1.4,5.5,"00:02:02",1
"17/02/28","00:20",0.0,0.2,87.2,1018.2,288.8,1.1,2.2,321.0,0.00,-1.6,5.7,"00:10:56",1
"17/02/28","00:30",0.0,0.1,88.1,1018.2,323.8,1.8,3.2,330.6,0.00,-1.6,5.6,"00:28:24",1
"17/02/28","00:40",0.0,0.1,88.5,1018.5,316.3,2.5,3.3,321.8,0.00,-1.5,5.4,"00:34:00",1
"17/02/28","00:50",0.0,0.0,88.9,1018.2,320.9,2.5,2.9,324.7,0.00,-1.6,5.5,"00:45:28",1
"17/02/28","01:00",0.0,-0.1,89.3,1018.2,325.3,2.5,3.3,339.3,0.00,-1.6,5.2,"00:50:02",1
"17/02/28","01:10",0.0,0.2,89.6,1018.2,324.2,2.6,3.4,329.8,0.00,-1.3,5.3,"01:00:16",1
"17/02/28","01:20",0.0,0.0,89.3,1018.5,313.7,2.3,3.3,327.6,0.00,-1.5,5.2,"01:17:44",1
"17/02/28","01:30",0.0,-0.1,89.3,1018.5,323.2,2.2,2.8,326.1,0.00,-1.6,5.2,"01:24:00",1
"17/02/28","01:40",0.0,-0.2,89.8,1018.2,327.1,2.3,3.3,336.5,0.00,-1.6,5.2,"01:34:48",1
"17/02/28","01:50",0.0,-0.1,90.1,1018.0,321.7,2.8,3.7,319.0,0.00,-1.5,5.0,"01:49:20",1
"17/02/28","02:00",0.0,0.0,89.7,1018.0,294.9,2.5,3.3,314.5,0.00,-1.4,5.1,"01:50:16",1
"17/02/28","02:10",0.0,-0.2,89.8,1018.5,305.2,2.6,3.1,323.7,0.00,-1.6,5.0,"02:08:32",1
"17/02/28","02:20",0.0,-0.4,90.1,1018.0,290.2,1.7,2.4,298.0,0.00,-1.8,5.0,"02:17:52",1
"17/02/28","02:30",0.0,-0.3,90.8,1018.2,309.7,2.3,3.3,320.7,0.00,-1.6,5.0,"02:26:10",1
"17/02/28","02:40",0.0,0.0,91.0,1018.2,321.3,3.1,4.3,324.5,0.00,-1.3,4.9,"02:35:28",1
"17/02/28","02:50",0.0,0.2,90.5,1018.0,320.4,3.5,4.9,316.1,0.00,-1.1,4.8,"02:44:40",1
"17/02/28","03:00",0.0,0.0,90.2,1017.8,323.2,3.0,3.7,335.4,0.00,-1.4,4.8,"02:57:12",1
"17/02/28","03:10",0.0,-0.1,90.4,1017.8,327.3,3.2,4.3,335.0,0.00,-1.4,4.6,"03:00:40",1
"17/02/28","03:20",0.0,0.0,90.4,1018.0,324.6,3.4,4.3,336.1,0.00,-1.3,4.7,"03:11:44",1
"17/02/28","03:30",0.0,0.2,90.4,1017.8,320.8,3.6,5.5,329.0,0.00,-1.1,4.7,"03:25:44",1
"17/02/28","03:40",0.0,0.1,89.9,1017.5,310.9,2.5,3.9,327.4,0.00,-1.3,4.6,"03:32:00",1
"17/02/28","03:50",0.0,-0.3,89.6,1017.5,307.5,1.0,2.5,315.8,0.00,-1.8,4.7,"03:43:52",1
"17/02/28","04:00",0.0,-0.7,90.0,1017.5,313.8,0.3,1.6,340.9,0.00,-2.1,4.6,"03:58:40",1
"17/02/28","04:10",0.0,-1.0,90.6,1017.5,299.9,1.0,1.3,329.7,0.00,-2.3,4.7,"04:06:00",1
"17/02/28","04:20",0.0,-1.3,91.5,1018.0,327.3,0.8,1.6,332.8,0.00,-2.5,4.3,"04:10:32",1
"17/02/28","04:30",0.0,-1.6,92.4,1017.8,281.8,0.8,1.2,250.2,0.00,-2.6,4.6,"04:22:56",1
"17/02/28","04:40",0.0,-1.6,93.5,1018.0,311.4,1.5,2.0,312.0,0.00,-2.5,4.4,"04:38:32",1
"17/02/28","04:50",0.0,-1.1,94.6,1017.8,329.0,1.7,2.8,340.5,0.00,-1.8,4.5,"04:47:52",1
"17/02/28","05:00",0.0,-0.4,94.6,1018.0,320.8,2.7,4.9,324.6,0.00,-1.1,4.5,"04:58:50",1
"17/02/28","05:10",0.0,0.0,92.8,1018.0,325.6,3.5,4.9,334.3,0.00,-1.0,4.4,"05:03:46",1
"17/02/28","05:20",0.0,-0.3,91.9,1018.0,322.8,2.5,3.3,324.1,0.00,-1.4,4.4,"05:13:28",1
"17/02/28","05:30",0.0,-0.4,91.8,1018.2,332.5,1.8,2.7,339.7,0.00,-1.5,4.2,"05:20:48",1
"17/02/28","05:40",0.0,-0.6,91.8,1018.2,322.0,2.1,3.1,334.6,0.00,-1.7,4.1,"05:34:32",1
"17/02/28","05:50",0.0,-0.7,92.0,1018.2,281.8,1.3,3.1,313.1,0.00,-1.8,4.2,"05:41:28",1
"17/02/28","06:00",0.0,-0.8,91.9,1018.0,295.3,1.0,2.0,333.7,0.00,-1.9,4.3,"05:58:48",1
"17/02/28","06:10",0.0,-1.1,92.4,1018.7,339.7,1.1,1.8,342.1,0.00,-2.1,4.3,"06:00:32",1
"17/02/28","06:20",0.0,-1.4,93.2,1018.2,321.5,1.1,2.0,328.1,0.00,-2.3,4.2,"06:11:44",1
"17/02/28","06:30",0.0,-1.4,93.9,1018.2,237.4,0.3,1.6,310.0,0.00,-2.2,4.0,"06:20:02",1
"17/02/28","06:40",0.0,-1.3,94.4,1018.5,319.4,1.3,2.2,322.0,0.00,-2.0,4.2,"06:36:32",1
"17/02/28","06:50",0.0,-1.0,95.1,1018.5,322.5,1.3,2.1,324.7,0.00,-1.6,4.1,"06:43:12",1
"17/02/28","07:00",0.0,-0.7,95.4,1018.7,290.6,1.3,2.4,317.3,0.00,-1.3,4.2,"06:59:54",1
"17/02/28","07:10",0.0,-0.3,95.4,1018.7,304.5,1.8,2.7,321.5,0.00,-0.9,4.1,"07:01:20",1
"17/02/28","07:20",0.0,-0.1,95.3,1019.2,286.8,1.2,1.7,310.4,0.00,-0.7,4.3,"07:13:50",1
"17/02/28","07:30",0.0,0.2,95.0,1019.2,274.8,0.8,1.2,286.7,0.01,-0.5,4.1,"07:20:28",1
"17/02/28","07:40",0.0,0.4,94.6,1019.4,235.7,0.3,0.9,277.2,0.02,-0.3,4.4,"07:35:28",1
"17/02/28","07:50",0.0,0.7,94.1,1019.2,251.5,0.2,1.0,290.1,0.02,-0.1,4.4,"07:44:44",1
"17/02/28","08:00",0.0,1.0,93.1,1019.7,256.1,0.5,1.1,289.5,0.04,0.1,4.5,"07:56:46",1
"17/02/28","08:10",0.0,1.3,92.2,1019.9,225.5,0.5,1.1,295.5,0.04,0.2,4.5,"08:03:44",1
"17/02/28","08:20",0.0,1.9,89.3,1020.1,268.6,1.2,2.1,293.3,0.07,0.4,4.6,"08:19:52",1
"17/02/28","08:30",0.0,2.2,88.2,1020.8,284.6,1.3,1.8,283.5,0.06,0.5,4.6,"08:20:40",1
"17/02/28","08:40",0.0,2.3,87.2,1020.6,288.9,2.0,2.8,311.6,0.07,0.4,4.6,"08:36:40",1
"17/02/28","08:50",0.0,2.5,86.8,1020.8,261.6,1.1,2.1,252.6,0.09,0.6,5.0,"08:40:40",1
"17/02/28","09:00",0.0,2.7,83.0,1021.1,253.6,1.0,1.7,268.2,0.13,0.1,4.9,"08:57:56",1
"17/02/28","09:10",0.0,2.9,83.4,1021.1,276.1,1.5,2.0,261.0,0.12,0.4,5.0,"09:03:40",1
"17/02/28","09:20",0.0,3.2,82.9,1021.3,258.3,0.8,1.8,294.9,0.14,0.6,5.5,"09:11:32",1
"17/02/28","09:30",0.0,3.7,79.8,1021.8,302.3,1.5,2.5,314.0,0.17,0.6,5.2,"09:26:48",1
"17/02/28","09:40",0.0,3.6,80.6,1021.5,265.7,1.3,2.2,255.3,0.14,0.6,5.3,"09:30:26",1
"17/02/28","09:50",0.0,4.0,78.3,1021.3,243.8,0.8,1.7,257.5,0.22,0.6,5.7,"09:49:30",1
"17/02/28","10:00",0.0,4.6,78.0,1021.3,264.4,1.1,1.8,274.8,0.24,1.1,5.7,"09:50:42",1
"17/02/28","10:10",0.0,4.6,76.2,1021.3,214.9,1.0,2.1,158.8,0.23,0.8,5.9,"10:08:40",1
"17/02/28","10:20",0.0,5.0,73.7,1021.3,346.8,1.0,2.5,120.0,0.24,0.7,6.1,"10:16:34",1
"17/02/28","10:30",0.0,5.3,72.3,1021.1,151.9,0.8,1.7,127.3,0.30,0.8,6.2,"10:22:32",1
"17/02/28","10:40",0.0,6.5,70.7,1020.8,256.8,1.0,1.8,274.8,0.35,1.6,6.5,"10:30:26",1
"17/02/28","10:50",0.0,7.0,67.3,1021.3,179.5,0.8,1.8,208.5,0.45,1.4,6.8,"10:43:06",1
"17/02/28","11:00",0.0,7.5,66.2,1020.8,104.3,0.8,2.4,107.8,0.37,1.6,7.2,"10:53:12",1
"17/02/28","11:10",0.0,8.2,63.1,1020.8,247.6,1.2,2.9,305.5,0.48,1.6,7.3,"11:09:28",1
"17/02/28","11:20",0.0,8.5,61.1,1021.1,315.0,1.6,4.3,337.0,0.38,1.5,7.5,"11:12:16",1
"17/02/28","11:30",0.0,7.9,62.8,1020.6,264.7,1.1,2.6,224.4,0.23,1.3,7.8,"11:23:12",1
"17/02/28","11:40",0.0,7.8,62.5,1020.6,266.7,1.5,3.7,272.5,0.20,1.1,7.7,"11:38:24",1
"17/02/28","11:50",0.0,8.3,61.0,1019.9,268.0,2.0,3.4,282.0,0.29,1.3,7.8,"11:44:56",1
"17/02/28","12:00",0.0,8.3,59.7,1020.1,280.6,2.0,3.5,225.1,0.20,1.0,8.0,"11:52:40",1
"17/02/28","12:10",0.0,8.5,58.9,1019.7,329.3,2.6,4.9,332.3,0.26,1.0,8.0,"12:01:12",1
"17/02/28","12:20",0.0,9.7,53.8,1019.7,352.2,1.3,3.3,356.8,0.54,0.8,8.4,"12:11:44",1
"17/02/28","12:30",0.0,8.6,57.4,1019.9,11.7,1.6,4.1,14.8,0.20,0.7,8.3,"12:27:04",1
"17/02/28","12:40",0.0,8.4,58.1,1019.0,347.0,3.1,7.5,314.7,0.19,0.7,8.3,"12:38:56",1
"17/02/28","12:50",0.0,8.4,56.7,1019.0,338.3,3.2,5.8,342.0,0.20,0.3,8.6,"12:43:28",1
"17/02/28","13:00",0.0,8.5,56.9,1019.0,336.8,3.0,5.4,345.5,0.20,0.5,8.3,"12:52:32",1
"17/02/28","13:10",0.0,8.9,60.1,1019.0,349.8,1.8,4.5,339.5,0.22,1.6,8.4,"13:07:52",1
"17/02/28","13:20",0.0,8.5,56.4,1018.5,354.4,2.8,6.6,349.5,0.24,0.4,8.6,"13:12:24",1
"17/02/28","13:30",0.0,9.2,57.9,1018.2,336.7,2.8,5.0,316.0,0.28,1.4,8.6,"13:24:16",1
"17/02/28","13:40",0.0,8.8,56.1,1018.2,339.2,3.0,5.2,348.5,0.24,0.6,8.7,"13:31:54",1
"17/02/28","13:50",0.0,8.9,55.5,1018.0,343.0,2.5,4.7,338.2,0.26,0.5,8.8,"13:40:56",1
"17/02/28","14:00",0.0,8.7,56.6,1018.0,330.7,2.3,5.1,326.6,0.17,0.6,8.6,"13:57:54",1
"17/02/28","14:10",0.0,8.9,57.6,1018.0,330.8,2.6,4.8,323.6,0.20,1.0,8.7,"14:05:44",1
"17/02/28","14:20",0.0,8.9,56.9,1018.2,336.9,3.1,6.5,344.1,0.26,0.9,8.8,"14:15:12",1
"17/02/28","14:30",0.0,9.4,55.5,1018.0,341.0,2.7,6.0,333.8,0.38,1.0,8.8,"14:21:44",1
"17/02/28","14:40",0.0,9.7,54.4,1018.0,340.7,2.6,5.9,344.2,0.36,1.0,9.0,"14:38:00",1
"17/02/28","14:50",0.0,10.6,52.4,1018.0,338.2,2.7,5.7,341.5,0.49,1.3,9.1,"14:41:52",1
"17/02/28","15:00",0.0,10.2,50.6,1017.8,341.3,2.3,5.2,346.3,0.43,0.5,9.2,"14:50:08",1
"17/02/28","15:10",0.0,10.0,51.4,1017.8,339.3,3.2,6.8,340.8,0.38,0.5,9.4,"15:00:02",1
"17/02/28","15:20",0.0,10.2,52.1,1017.8,337.0,2.8,6.0,345.4,0.37,0.9,9.3,"15:18:56",1
"17/02/28","15:30",0.0,9.9,52.4,1018.0,336.4,3.9,7.4,343.5,0.35,0.7,9.3,"15:28:56",1
"17/02/28","15:40",0.0,9.8,52.3,1017.8,338.3,3.6,6.6,341.9,0.32,0.5,9.4,"15:37:36",1
"17/02/28","15:50",0.0,9.7,53.6,1018.0,335.7,3.4,6.0,347.2,0.27,0.8,9.5,"15:43:12",1
"17/02/28","16:00",0.0,9.6,54.0,1018.0,333.3,3.4,5.5,321.5,0.23,0.8,9.4,"15:54:32",1
"17/02/28","16:10",0.0,9.1,55.5,1017.8,337.4,3.9,7.0,317.4,0.17,0.7,9.3,"16:06:40",1
"17/02/28","16:20",0.0,9.0,57.3,1017.8,335.3,4.0,7.7,328.5,0.17,1.1,9.5,"16:12:48",1
"17/02/28","16:30",0.0,9.0,57.1,1017.5,337.1,4.0,7.5,345.1,0.15,1.0,9.4,"16:29:20",1
"17/02/28","16:40",0.0,8.6,58.0,1017.8,336.6,4.2,6.5,329.3,0.12,0.9,9.3,"16:39:14",1
"17/02/28","16:50",0.0,8.4,57.4,1017.8,334.4,3.9,6.3,331.9,0.09,0.5,9.3,"16:41:28",1
"17/02/28","17:00",0.0,8.3,57.0,1017.8,344.7,3.2,4.9,331.8,0.07,0.3,9.0,"16:53:44",1
"17/02/28","17:10",0.0,8.0,57.1,1017.8,352.7,2.7,4.7,335.5,0.05,0.1,9.1,"17:00:40",1
"17/02/28","17:20",0.0,7.7,58.7,1017.8,341.6,3.6,7.2,335.2,0.03,0.2,8.8,"17:16:24",1
"17/02/28","17:30",0.0,7.3,59.9,1018.0,348.8,3.7,7.1,338.9,0.00,0.1,8.7,"17:26:40",1
"17/02/28","17:40",0.0,6.8,61.3,1018.2,336.1,3.5,6.6,333.6,0.00,-0.1,8.7,"17:35:12",1
"17/02/28","17:50",0.0,6.5,62.1,1018.0,335.0,3.4,5.4,337.5,0.00,-0.2,8.5,"17:49:20",1
"17/02/28","18:00",0.0,6.3,62.9,1018.0,337.5,3.6,5.8,323.4,0.00,-0.2,8.5,"17:51:44",1
"17/02/28","18:10",0.0,5.9,64.6,1018.2,327.9,3.1,5.0,318.9,0.00,-0.2,8.5,"18:01:12",1
"17/02/28","18:20",0.0,5.6,66.2,1018.0,330.5,3.0,3.7,353.6,0.00,-0.2,8.1,"18:10:56",1
"17/02/28","18:30",0.0,5.0,68.3,1017.8,321.6,2.7,4.1,329.6,0.00,-0.3,8.2,"18:27:12",1
"17/02/28","18:40",0.0,4.6,70.0,1018.0,318.8,2.2,3.7,335.4,0.00,-0.4,7.9,"18:31:04",1
"17/02/28","18:50",0.0,4.2,71.5,1017.5,334.7,1.3,2.2,328.1,0.00,-0.4,7.9,"18:48:56",1
"17/02/28","19:00",0.0,3.4,74.0,1017.5,308.5,2.1,2.8,311.5,0.00,-0.7,7.5,"18:53:12",1
"17/02/28","19:10",0.0,3.0,76.4,1017.8,295.6,1.6,2.2,320.9,0.00,-0.7,7.6,"19:00:16",1
"17/02/28","19:20",0.0,2.7,78.2,1017.8,305.1,1.7,2.4,321.9,0.00,-0.7,7.5,"19:15:30",1
"17/02/28","19:30",0.0,2.5,79.7,1017.8,300.5,2.2,2.8,309.7,0.00,-0.6,7.3,"19:24:32",1
"17/02/28","19:40",0.0,2.3,80.8,1017.3,293.8,1.7,2.0,303.8,0.00,-0.6,7.3,"19:30:16",1
"17/02/28","19:50",0.0,2.4,82.0,1017.3,295.6,2.2,3.3,312.8,0.00,-0.3,7.2,"19:42:50",1
"17/02/28","20:00",0.0,2.6,81.5,1017.5,306.2,2.7,4.0,328.4,0.00,-0.2,7.2,"19:56:46",1
"17/02/28","20:10",0.0,2.6,80.9,1017.1,311.3,2.0,3.7,325.5,0.00,-0.3,6.8,"20:00:32",1
"17/02/28","20:20",0.0,2.2,81.2,1017.1,256.1,1.0,2.4,297.9,0.00,-0.6,6.9,"20:19:36",1
"17/02/28","20:30",0.0,1.9,82.6,1017.1,288.0,2.2,3.3,321.8,0.00,-0.7,6.7,"20:22:56",1
"17/02/28","20:40",0.0,1.9,83.5,1017.1,293.3,2.3,2.7,306.1,0.00,-0.6,6.7,"20:33:02",1
"17/02/28","20:50",0.0,1.7,84.3,1017.1,313.3,2.7,3.5,320.3,0.00,-0.6,6.6,"20:44:54",1
"17/02/28","21:00",0.0,1.6,85.1,1016.6,302.6,2.5,3.3,323.4,0.00,-0.6,6.4,"20:57:30",1
"17/02/28","21:10",0.0,1.4,85.5,1017.1,291.3,2.0,3.2,320.7,0.00,-0.7,6.2,"21:00:08",1
"17/02/28","21:20",0.0,1.2,86.0,1016.8,294.4,2.1,2.8,322.2,0.00,-0.8,6.5,"21:19:38",1
"17/02/28","21:30",0.0,0.9,86.4,1016.4,306.1,2.0,3.1,321.8,0.00,-1.1,6.1,"21:23:12",1
"17/02/28","21:40",0.0,0.6,87.5,1016.6,299.0,2.1,3.3,307.9,0.00,-1.2,6.4,"21:39:28",1
"17/02/28","21:50",0.0,0.9,88.6,1016.8,292.3,2.7,3.7,310.4,0.00,-0.7,6.2,"21:40:48",1
"17/02/28","22:00",0.0,1.1,88.6,1016.8,278.4,2.1,2.6,268.3,0.00,-0.5,6.0,"21:57:30",1
"17/02/28","22:10",0.0,1.2,88.1,1016.6,307.5,3.4,4.9,321.5,0.00,-0.5,6.2,"22:07:34",1
"17/02/28","22:20",0.0,1.1,87.6,1016.8,301.4,3.4,4.0,306.9,0.00,-0.7,5.8,"22:19:44",1
"17/02/28","22:30",0.0,1.2,87.8,1017.1,300.7,3.4,4.4,311.8,0.00,-0.6,5.9,"22:28:02",1
"17/02/28","22:40",0.0,1.3,87.6,1017.1,302.2,3.4,4.8,315.0,0.00,-0.5,5.8,"22:37:16",1
"17/02/28","22:50",0.0,1.4,86.9,1017.3,314.9,4.0,4.7,318.4,0.00,-0.5,5.7,"22:48:26",1
"17/02/28","23:00",0.0,1.4,86.6,1016.8,323.3,3.4,5.2,328.1,0.00,-0.5,5.8,"22:58:36",1
"17/02/28","23:10",0.0,1.5,86.4,1016.8,306.4,3.7,4.5,314.7,0.00,-0.5,5.8,"23:02:46",1
"17/02/28","23:20",0.0,1.6,86.1,1016.8,310.4,4.0,4.8,312.0,0.00,-0.4,5.7,"23:16:36",1
"17/02/28","23:30",0.0,1.6,85.1,1016.6,321.8,3.0,5.4,322.7,0.00,-0.6,5.5,"23:21:10",1
"17/02/28","23:40",0.0,1.2,85.9,1016.8,325.9,2.8,4.2,313.6,0.00,-0.9,5.5,"23:39:04",1
"17/02/28","23:50",0.0,1.2,86.8,1016.6,317.7,3.7,4.9,318.7,0.00,-0.7,5.6,"23:43:06",1
"17/02/28","24:00",0.0,1.0,87.2,1016.6,324.5,3.6,4.5,330.3,0.00,-0.8,5.4,"23:59:56",1
